OH6LSL Weather Reports


time (UTC)temp
C
wind
direction
speed
KPH
gust
KPH
rain 1hr
cm
rain 24hr
cm
rain mn
cm
humidity
%
barometer
mb
20260507085510 5 182 0.0 9.7 0.00 0.00 0.00 63 1013.8
20260507084449 6 182 0.0 0.0 0.00 0.00 0.00 55 1013.7
20260507083506 6 185 0.0 1.6 0.00 0.00 0.00 60 1013.7
20260507082444 6 184 0.0 0.0 0.00 0.00 0.00 60 1013.8
20260507081446 5 215 0.0 0.0 0.00 0.00 0.00 60 1013.7
20260507080436 5 215 0.0 4.8 0.00 0.00 0.00 61 1013.7
20260507075436 5 179 0.0 8.0 0.00 0.00 0.00 62 1013.7
20260507074433 6 164 1.6 9.7 0.00 0.00 0.00 61 1013.5
20260507073440 6 165 0.0 8.0 0.00 0.00 0.00 58 1013.5
20260507072439 6 257 0.0 9.7 0.00 0.00 0.00 59 1013.3
20260507071440 5 256 1.6 11.3 0.00 0.00 0.00 60 1013.0
20260507070513 5 220 3.2 11.3 0.00 0.00 0.00 59 1013.0
20260507065436 5 234 3.2 8.0 0.00 0.00 0.00 60 1012.9
20260507064438 5 243 1.6 8.0 0.00 0.00 0.00 61 1013.0
20260507063451 5 239 3.2 9.7 0.00 0.00 0.00 62 1013.0
20260507062432 5 206 1.6 11.3 0.00 0.00 0.00 59 1012.8
20260507061453 5 277 4.8 11.3 0.00 0.00 0.00 59 1012.7
20260507060504 6 209 0.0 12.9 0.00 0.00 0.00 58 1012.7
20260507055444 6 223 1.6 8.0 0.00 0.00 0.00 57 1012.5
20260507054504 5 222 3.2 11.3 0.00 0.00 0.00 56 1012.4
20260507053451 5 224 1.6 8.0 0.00 0.00 0.00 56 1012.4
20260507052511 5 131 1.6 4.8 0.00 0.00 0.00 56 1012.3
20260507051451 5 138 0.0 3.2 0.00 0.00 0.00 56 1012.2
20260507050441 5 130 0.0 3.2 0.00 0.00 0.00 54 1012.2
20260507045442 4 182 0.0 6.4 0.00 0.00 0.00 53 1012.3
20260507044507 4 206 0.0 8.0 0.00 0.00 0.00 51 1012.2
20260507043454 3 113 0.0 3.2 0.00 0.00 0.00 51 1012.2
20260507042433 3 145 0.0 0.0 0.00 0.00 0.00 51 1012.1
20260507041435 2 145 0.0 1.6 0.00 0.00 0.00 50 1012.0
20260507040447 2 147 0.0 0.0 0.00 0.00 0.00 50 1012.0
20260507035448 1 147 0.0 1.6 0.00 0.00 0.00 49 1012.1
20260507034447 1 147 0.0 0.0 0.00 0.00 0.00 51 1011.9
20260507033437 0 147 0.0 0.0 0.00 0.00 0.00 51 1011.9
20260507032438 0 143 0.0 3.2 0.00 0.00 0.00 51 1011.8
20260507031434 0 152 0.0 1.6 0.00 0.00 0.00 51 1011.7
20260507030445 0 154 1.6 9.7 0.00 0.00 0.00 51 1011.7
20260507025444 0 138 0.0 3.2 0.00 0.00 0.00 51 1011.7
20260507024445 0 137 0.0 1.6 0.00 0.00 0.00 51 1011.6
20260507023435 0 140 0.0 0.0 0.00 0.00 0.00 51 1011.6
20260507022434 0 140 0.0 0.0 0.00 0.00 0.00 52 1011.6
20260507021433 0 140 0.0 0.0 0.00 0.00 0.00 54 1011.7
20260507020442 0 140 0.0 0.0 0.00 0.00 0.00 55 1011.7
20260507015448 0 140 0.0 0.0 0.00 0.00 0.00 56 1011.6
20260507014444 0 140 0.0 0.0 0.00 0.00 0.00 57 1011.6
20260507013433 0 140 0.0 0.0 0.00 0.00 0.00 58 1011.6
20260507012451 1 140 0.0 0.0 0.00 0.00 0.00 59 1011.5
20260507011451 1 140 0.0 0.0 0.00 0.00 0.00 59 1011.3
20260507010442 1 140 0.0 0.0 0.00 0.00 0.00 60 1011.3
20260507005501 1 140 0.0 0.0 0.00 0.00 0.00 61 1011.3
20260507004441 2 140 0.0 0.0 0.00 0.00 0.00 62 1011.2
20260507003450 2 140 0.0 6.4 0.00 0.00 0.00 62 1011.2
20260507002450 2 136 0.0 8.0 0.00 0.00 0.00 62 1011.2
20260507001510 2 148 1.6 4.8 0.00 0.00 0.00 62 1011.2
20260507000442 2 148 0.0 0.0 0.00 0.00 0.00 62 1011.2
20260506235439 2 148 0.0 0.0 0.00 0.00 0.00 62 1011.0
20260506234441 2 148 0.0 1.6 0.00 0.00 0.00 62 1011.0
20260506233433 2 141 0.0 0.0 0.00 0.00 0.00 62 1011.0
20260506232454 2 141 0.0 0.0 0.00 0.00 0.00 63 1010.9
20260506231434 2 141 0.0 0.0 0.00 0.00 0.00 64 1010.9
20260506230504 2 141 0.0 0.0 0.00 0.00 0.00 64 1010.9
20260506225504 2 141 0.0 0.0 0.00 0.00 0.00 64 1010.7
20260506224444 2 141 0.0 0.0 0.00 0.00 0.00 64 1010.6
20260506223453 3 141 0.0 0.0 0.00 0.00 0.00 64 1010.6
20260506222433 3 141 0.0 0.0 0.00 0.00 0.00 63 1010.5
20260506221431 3 140 0.0 0.0 0.00 0.00 0.00 63 1010.5
20260506220440 3 140 0.0 3.2 0.00 0.00 0.00 62 1010.5
20260506215500 3 208 0.0 3.2 0.00 0.00 0.00 62 1010.3
20260506214443 3 130 0.0 0.0 0.00 0.00 0.00 61 1010.2
20260506213432 3 130 0.0 4.8 0.00 0.00 0.00 61 1010.2
20260506212432 3 136 0.0 4.8 0.00 0.00 0.00 59 1010.1
20260506211435 4 172 0.0 9.7 0.00 0.00 0.00 58 1010.1
20260506210443 4 210 0.0 4.8 0.00 0.00 0.00 58 1010.1
20260506205443 4 215 0.0 4.8 0.00 0.00 0.00 57 1010.0
20260506204445 4 188 0.0 9.7 0.00 0.00 0.00 59 1010.0
20260506203434 5 219 1.6 8.0 0.00 0.00 0.00 60 1010.0
20260506202435 4 184 1.6 11.3 0.00 0.00 0.00 60 1010.0
20260506201435 4 154 3.2 12.9 0.00 0.00 0.00 61 1009.9
20260506200448 3 172 1.6 8.0 0.00 0.00 0.00 64 1009.9
20260506195450 3 148 0.0 0.0 0.00 0.00 0.00 65 1009.8
20260506194447 3 150 0.0 3.2 0.00 0.00 0.00 65 1009.9
20260506193444 3 147 0.0 4.8 0.00 0.00 0.00 65 1009.9
20260506192507 3 152 1.6 3.2 0.00 0.00 0.00 65 1009.8
20260506191446 3 155 0.0 3.2 0.00 0.00 0.00 65 1009.6
20260506190434 4 169 0.0 3.2 0.00 0.00 0.00 64 1009.6
20260506185458 4 133 0.0 4.8 0.00 0.00 0.00 64 1009.6
20260506184436 4 154 0.0 1.6 0.00 0.00 0.00 62 1009.6
20260506183449 5 151 0.0 0.0 0.00 0.00 0.00 60 1009.6
20260506182511 5 151 0.0 4.8 0.00 0.00 0.00 59 1009.4
20260506181450 5 136 0.0 6.4 0.00 0.00 0.00 57 1009.3
20260506180501 5 212 0.0 6.4 0.00 0.00 0.00 56 1009.3
20260506175444 5 167 0.0 8.0 0.00 0.00 0.00 55 1009.2
20260506174446 6 203 0.0 4.8 0.00 0.00 0.00 52 1009.2
20260506173435 6 191 1.6 11.3 0.00 0.00 0.00 50 1009.2
20260506172436 6 171 3.2 9.7 0.00 0.00 0.00 49 1009.0
20260506171500 6 219 0.0 9.7 0.00 0.00 0.00 48 1008.9
20260506170449 6 236 1.6 12.9 0.00 0.00 0.00 48 1008.9
20260506165433 6 155 0.0 11.3 0.00 0.00 0.00 48 1008.8
20260506164437 6 222 1.6 9.7 0.00 0.00 0.00 49 1008.8
20260506163444 6 202 1.6 11.3 0.00 0.00 0.00 49 1008.8
20260506162446 6 253 1.6 8.0 0.00 0.00 0.00 50 1008.8
20260506161446 6 233 0.0 19.3 0.00 0.00 0.00 48 1008.8
20260506160438 7 223 4.8 12.9 0.00 0.00 0.00 47 1008.8
20260506155455 7 261 8.0 17.7 0.00 0.00 0.00 45 1008.6
20260506154456 7 233 3.2 19.3 0.00 0.00 0.00 46 1008.5
20260506153445 7 236 4.8 12.9 0.00 0.00 0.00 46 1008.5
20260506152445 7 244 3.2 9.7 0.00 0.00 0.00 47 1008.5
20260506151447 7 212 6.4 12.9 0.00 0.00 0.00 46 1008.5
20260506150436 7 213 6.4 17.7 0.00 0.00 0.00 44 1008.5
20260506145436 7 271 3.2 12.9 0.00 0.00 0.00 47 1008.4
20260506144443 7 215 3.2 11.3 0.00 0.00 0.00 45 1008.3
20260506143434 7 274 4.8 11.3 0.00 0.00 0.00 47 1008.3
20260506142454 7 192 1.6 12.9 0.00 0.00 0.00 46 1008.4
20260506141441 8 213 4.8 9.7 0.00 0.00 0.00 45 1008.3
20260506140454 8 202 3.2 11.3 0.00 0.00 0.00 43 1008.3
20260506135433 8 184 4.8 17.7 0.00 0.00 0.00 43 1008.2
20260506134435 8 86 6.4 11.3 0.00 0.00 0.00 41 1008.2
20260506133443 8 186 0.0 11.3 0.00 0.00 0.00 44 1008.2
20260506132506 8 152 4.8 9.7 0.00 0.00 0.00 43 1008.1
20260506131446 8 236 4.8 9.7 0.00 0.00 0.00 42 1008.0
20260506130440 8 172 1.6 11.3 0.00 0.00 0.00 43 1008.0
20260506125449 7 219 1.6 11.3 0.00 0.00 0.00 44 1008.0
20260506124433 7 134 4.8 16.1 0.00 0.00 0.00 45 1007.9
20260506123443 7 38 0.0 12.9 0.00 0.00 0.00 46 1007.9
20260506122445 7 144 3.2 11.3 0.00 0.00 0.00 46 1007.9
20260506121446 7 203 4.8 9.7 0.00 0.00 0.00 45 1007.8
20260506120436 7 246 0.0 11.3 0.00 0.00 0.00 49 1007.8
20260506115437 7 205 1.6 19.3 0.00 0.00 0.00 50 1007.6
20260506114458 7 274 1.6 16.1 0.00 0.00 0.00 49 1007.5
20260506113448 7 179 4.8 12.9 0.00 0.00 0.00 48 1007.5
20260506112448 7 219 0.0 11.3 0.00 0.00 0.00 49 1007.4
20260506111510 7 230 1.6 8.0 0.00 0.00 0.00 50 1007.3
20260506110439 6 178 1.6 16.1 0.00 0.00 0.00 50 1007.3
20260506105440 6 216 1.6 11.3 0.00 0.00 0.00 49 1007.1
20260506104444 7 219 0.0 9.7 0.00 0.00 0.00 49 1006.9
20260506103447 7 244 1.6 9.7 0.00 0.00 0.00 47 1006.9
20260506102449 7 270 1.6 16.1 0.00 0.00 0.00 48 1006.8
20260506101447 6 233 3.2 9.7 0.00 0.00 0.00 48 1006.6
20260506100437 6 329 0.0 6.4 0.00 0.00 0.00 49 1006.6
20260506095456 6 210 0.0 16.1 0.00 0.00 0.00 50 1006.4
20260506094437 6 209 0.0 12.9 0.00 0.00 0.00 53 1006.2
20260506093448 5 230 3.2 11.3 0.00 0.00 0.00 53 1006.2
20260506092510 5 184 1.6 11.3 0.00 0.00 0.00 54 1006.0
20260506091431 5 175 1.6 9.7 0.00 0.00 0.00 54 1005.9
20260506090503 5 144 0.0 17.7 0.00 0.00 0.00 55 1005.9